Location: Newark
(44.2003°N, 3.2583°E)
Time: 09:29:49
(UTC+00:00)

Altair - Pass Details

Date: 28 October 2019
Orbit: 1502 x 1682 km, 47.2° (Epoch: 11 November)

Event Time Altitude Azimuth Distance (km) Brightness Sun altitude
Rises 17:23:56 0° 284° (WNW) 4,871 11.5 -7.9°
Reaches altitude 10° 17:30:41 10° 252° (WSW) 3,914 11.3 -9.1°
Maximum altitude 17:32:53 11° 239° (WSW) 3,849 10.8 -9.5°
Drops below altitude 10° 17:35:05 10° 226° (SW) 3,926 10.5 -9.9°
Sets 17:41:59 0° 194° (SSW) 4,920 10.5 -11.1°
